Location: Spring Creek
(38.2870°N, 100.2160°W)
Time: 03:19:30
(UTC+00:00)

IDEFIX/ARIANE 42P - Pass Details

Date: 08 May 2021
Orbit: 786 x 802 km, 98.4° (Epoch: 22 June)

Event Time Altitude Azimuth Distance (km) Brightness Sun altitude
Rises 08:50:52 0° 20° (NNE) 3,313 7.0 -26.3°
Reaches altitude 10° 08:53:20 10° 28° (NNE) 2,381 6.0 -26.0°
Maximum altitude 08:58:18 42° 98° (E) 1,136 3.5 -25.4°
Enters shadow 09:00:06 31° 142° (SE) 1,364 3.6 -25.2°
